Skip Navigation Links
NOAA logo - Click to go to the NOAA homepage
NOAA's National Weather Service
Alaska Aviation Weather Unit
  NWS logo - Click to go to the NWS homepage
Left Navbar Graphic     09 AKDT = 17 GMT

   
NOAA is celebrating 200 years of science, service, and stewardship. Visit the NOAA 200th celebration Web site to learn more.
USA.gov is the U.S. Government's official Web portal to all Federal, state and local government Web resources and services.
Facebook
NWS on Facebook

Important Change Regarding the AAWU Web Presence

 

Over the last several months, the AAWU has been working to navigate its webpages to a nationally supported server. Security, as well as other needs, have necessitated the change.  In the process, we have made an effort to enhance the functionality of our website, as well as some of our products. As of June 20, 2017, aawu.arh.noaa.gov will be discontinued. The new AAWU web address is weather.gov/aawu. It is now live and will run in-parallel with the old site until it is discontinued. Please send any feedback or questions regarding the new webpages to nws.ar.aawu.webauthors@noaa.gov.  Thank you for your patience during this time of transition.
AAWU Home :: Display TAF Add Bookmark
TAF PAOT 291124Z 2912/3012 36010KT P6SM SCT050 BKN080 BKN250
     FM300000 30015KT P6SM SCT050 SCT100 BKN250=

METAR PAOT 291153Z 34005KT 10SM BKN070 OVC085 04/02 A2988= METAR PAOT 291253Z 33004KT 10SM BKN070 OVC085 03/01 A2988= METAR PAOT 291353Z 31004KT 10SM OVC090 03/01 A2988= METAR PAOT 291453Z 30006KT 10SM SCT065 OVC090 03/01 A2987= METAR PAOT 291553Z 31008KT 10SM CLR 03/01 A2987= METAR PAOT 291653Z 31009KT 10SM CLR 02/00 A2985 RMK AO2 SLP110 T00220000 $=
 Alaska TAF Map

NOAA's National Weather Service
Alaska Aviation Weather Unit
6930 Sand Lake Road
Anchorage, AK 99502-1845
Disclaimer
Credits
Glossary
Privacy Policy
About Us
Career Opportunities
Contact AAWU Internet Services Site last modified: April, 17th 2012